Location: Bush Observatory
(40.2653°N, 94.3194°W)
Time: 10:12:33
(UTC-05:00)

JAS-2 - Visible Passes

Search period start: 01 July 2016 00:00
Search period end: 11 July 2016 00:00
Orbit: 800 x 1322 km, 98.6° (Epoch: 30 June)

Date Brightness Start Highest point End Pass type
(mag) Time Alt. Az. Time Alt. Az. Time Alt. Az.
01 Jul 10.9 00:55:43 10° NE 00:59:31 19° E 00:59:36 19° E visible
01 Jul 9.6 02:39:43 10° N 02:45:02 48° WNW 02:46:04 42° WSW visible
02 Jul 9.4 01:44:36 10° NNE 01:49:59 55° E 01:50:14 55° ESE visible
02 Jul 11.0 03:30:56 10° NNW 03:34:34 18° WNW 03:36:43 14° W visible
03 Jul 11.0 00:50:58 10° NE 00:54:24 17° E 00:54:24 17° E visible
03 Jul 9.5 02:34:43 10° N 02:40:01 52° WNW 02:40:53 47° WSW visible
04 Jul 9.5 01:39:40 10° NNE 01:44:56 50° E 01:45:03 50° ESE visible
04 Jul 10.9 03:25:50 10° NNW 03:29:35 19° WNW 03:31:31 16° W visible
05 Jul 11.1 00:46:15 10° NE 00:49:12 16° E 00:49:12 16° E visible
05 Jul 9.3 02:29:42 10° N 02:34:59 56° WNW 02:35:41 52° WSW visible
06 Jul 9.6 01:34:44 10° NNE 01:39:52 46° E 01:39:52 46° E visible
06 Jul 10.8 03:20:43 10° NNW 03:24:36 21° WNW 03:26:19 18° W visible
07 Jul 11.2 00:41:34 10° ENE 00:44:01 14° E 00:44:01 14° E visible
07 Jul 9.2 02:24:41 10° N 02:29:57 61° WNW 02:30:29 58° WSW visible
08 Jul 9.8 01:29:47 10° NNE 01:34:39 42° E 01:34:39 42° E visible
08 Jul 10.7 03:15:36 10° NNW 03:19:38 22° WNW 03:21:08 20° W visible
09 Jul 11.3 00:36:57 10° ENE 00:38:49 13° E 00:38:49 13° E visible
09 Jul 9.1 02:19:39 10° N 02:24:54 67° WNW 02:25:17 64° W visible
10 Jul 9.9 01:24:50 10° NNE 01:29:27 38° E 01:29:27 38° E visible
10 Jul 10.5 03:10:29 10° NNW 03:14:38 24° WNW 03:15:56 22° W visible
